Flag for Poland Weather past 2 weeks in Gdańsk, Poland

Now
50 °F

Clear.


Feels Like: 50 °F
Forecast: 55 / 70 °F
Wind: 2 mph from West

Location: Gdansk-Rebiechowo

Current Time: Jul 1, 2015 at 2:41:19 AM

Latest Report: Jul 1, 2015 at 2:00 AM


Visibility: 10 mi

Pressure: 30.18 "Hg

Humidity: 94%

Dew point: 48 °F

Location of GdańskLocation

Historic Weather in Gdańsk — Graph

°F

Gdańsk temperature yesterday

Maximum temperature yesterday: 70 °F (at 12:30 PM)
Minimum temperature yesterday: 54 °F (at 1:00 AM)
Average temperature yesterday: 62 °F

Past Weeks' High & Low Weather Summary

 TemperatureHumidityPressure
High70 °F (Jun 30, 12:30 PM)100% (Jun 20, 12:00 AM)30.18 "Hg (Jun 20, 12:00 AM)
Low43 °F (Jun 16, 2:30 AM)43% (Jun 17, 1:30 PM)29.59 "Hg (Jun 23, 3:30 AM)
Average57 °F79%29.95 "Hg
* Reported Jun 16 1:00 AM — Jul 1 1:30 AM, Gdańsk, Weather by CustomWeather, © 2015

Note: Actual official high and low records may vary slightly from our data, if they occured in-between our weather recording intervals... More about our weather records

Advertising

Gdańsk weather history for previous 24 hours

 ConditionsComfort  
Time TempWeatherWind HumidityBarometerVisibility
1:30 AM
Wed, Jul 1
52 °FClear.2 mph88%30.18 "Hg10 mi
1:00 AM52 °FClear.3 mph88%30.18 "Hg10 mi
12:30 AM54 °FClear.3 mph82%30.18 "Hg10 mi
12:00 AM54 °FClear.2 mph82%30.18 "Hg10 mi
11:30 PM
Tue, Jun 30
55 °FClear.2 mph82%30.18 "Hg10 mi
11:00 PM55 °FClear.3 mph82%30.18 "Hg10 mi
10:30 PM57 °FClear.3 mph82%30.18 "Hg10 mi
10:00 PM59 °FSunny.5 mph77%30.15 "Hg10 mi
9:30 PM61 °FSunny.5 mph72%30.15 "Hg10 mi
9:00 PM63 °FSunny.6 mph64%30.15 "Hg10 mi
8:30 PM63 °FSunny.9 mph64%30.15 "Hg10 mi
8:00 PM64 °FSunny.12 mph56%30.15 "Hg10 mi
7:00 PM66 °FPassing clouds.14 mph56%30.15 "HgN/A
6:30 PM66 °FPassing clouds.16 mph56%30.15 "HgN/A
6:00 PM68 °FPassing clouds.17 mph49%30.12 "HgN/A
5:00 PM68 °FPassing clouds.17 mph46%30.12 "HgN/A
4:30 PM70 °FPassing clouds.16 mph46%30.12 "HgN/A
4:00 PM70 °FPassing clouds.16 mph43%30.12 "HgN/A
3:00 PM70 °FPassing clouds.14 mph46%30.12 "HgN/A
2:30 PM70 °FPassing clouds.15 mph46%30.12 "HgN/A
2:00 PM70 °FPassing clouds.12 mph50%30.12 "HgN/A
1:30 PM68 °FScattered clouds.15 mph56%30.12 "HgN/A
1:00 PM70 °FScattered clouds.14 mph53%30.12 "HgN/A
12:30 PM70 °FScattered clouds.14 mph53%30.12 "HgN/A
12:00 PM68 °FScattered clouds.13 mph56%30.12 "HgN/A
11:30 AM68 °FScattered clouds.14 mph60%30.12 "HgN/A
11:00 AM68 °FScattered clouds.12 mph60%30.09 "HgN/A
10:30 AM68 °FScattered clouds.8 mph60%30.09 "HgN/A
10:00 AM66 °FScattered clouds.8 mph68%30.09 "HgN/A
9:30 AM68 °FScattered clouds.9 mph64%30.09 "HgN/A
9:00 AM66 °FPassing clouds.9 mph68%30.09 "HgN/A
8:30 AM64 °FSunny.7 mph78%30.09 "Hg10 mi
8:00 AM64 °FPassing clouds.6 mph78%30.09 "HgN/A
7:30 AM61 °FPassing clouds.6 mph94%30.09 "HgN/A
7:00 AM59 °FPassing clouds.5 mph94%30.09 "HgN/A
6:30 AM57 °FPassing clouds.5 mph94%30.09 "HgN/A
6:00 AM57 °FSunny.5 mph94%30.09 "Hg10 mi
5:30 AM57 °FPassing clouds.5 mph94%30.09 "HgN/A
5:00 AM57 °FPassing clouds.5 mph94%30.09 "HgN/A
4:30 AM55 °FSprinkles. Passing clouds.2 mph100%30.09 "HgN/A
4:00 AM55 °FRain showers. Passing clouds.7 mph94%30.09 "HgN/A
3:30 AM54 °FClear.1 mph100%30.09 "Hg10 mi
3:00 AM54 °FClear.1 mph94%30.09 "Hg10 mi
2:30 AM54 °FClear.1 mph100%30.09 "Hg10 mi
2:00 AM54 °FClear.1 mph94%30.09 "Hg10 mi
Weather by CustomWeather, © 2015

See weather overviewHow to use our weather pages